Tracking 17884 objects as of 4-December-2016
HD Live streaming from Space Station
objects crossing your sky now

COSMOS 2251 DEB

Track COSMOS 2251 DEB now!
10-day predictions


NORAD ID: 38196
Int'l Code: 1993-036BSL
Perigee: 624.8 km
Apogee: 911.0 km
Inclination: 73.9 °
Period: 100.0 minutes
Semi major axis: 7138 km
RCS: 0.0033 m2 (small)
Launch date: June 16, 1993
Source: Commonwealth of Independent States (former USSR) (CIS)
Launch site: PLESETSK MISSILE AND SPACE COMPLEX (PKMTR)

Note: This is SATELLITE DEBRIS
Your satellite tracking list
Your tracking list is empty





NASA's NSSDC Master Catalog

Two Line Element Set (TLE):
1 38196U 93036BSL 16339.12311340  .00003375  00000-0  86586-3 0  9999
2 38196  73.8927 254.7525 0200395  44.4094 317.2932 14.39313415300407
Source of the keplerian elements: AFSPC